Theta_e
320 319 318 317 317 316 316 316 316 316 316 316 316 316 316 316 316 316 316 316 316 316 316 316 315 315 315 315 316 316 317 318 319 321 323 323 323 323 323 324 324 324 324 324 324 325 325 324 323 323 323 323 322 322 322 322 322 322 322 322 322 322 322 321 322 320 318 318 319 319 318 319 319 318 318 317 316 317 317 316 317 317 317 316 317
320 319 318 317 317 317 317 317 317 317 316 316 316 316 316 316 315 315 315 315 315 315 315 315 315 315 315 316 316 317 317 318 320 322 323 323 323 323 323 324 324 324 324 323 323 324 324 323 322 322 322 321 320 320 320 320 320 321 321 320 320 320 320 320 321 320 318 317 318 318 318 318 319 318 317 316 317 318 317 317 318 318 317 316 317
320 319 318 317 317 317 317 317 316 316 316 316 316 316 315 315 315 315 315 315 315 315 315 315 315 316 316 316 316 317 318 320 322 322 323 322 323 323 323 323 323 323 322 322 323 323 322 321 320 320 320 320 319 318 317 317 317 318 318 318 318 318 318 318 319 320 318 316 317 318 318 318 319 318 317 317 319 319 318 317 317 317 316 316 318
318 317 317 317 317 317 316 316 316 316 316 316 316 316 316 315 315 315 315 315 314 315 315 316 316 316 316 316 316 317 319 320 321 322 322 322 323 323 323 322 322 322 322 321 321 321 320 319 318 318 318 317 316 315 314 314 314 315 315 315 316 316 317 317 318 318 318 317 315 317 318 318 318 317 317 318 320 319 316 315 315 314 314 315 317
317 317 317 317 317 316 316 316 316 316 316 316 316 315 316 315 315 315 315 315 315 315 315 316 316 316 316 316 317 318 319 320 320 321 321 322 322 322 321 321 321 321 320 319 319 318 318 317 315 315 315 314 313 313 312 312 312 312 312 312 312 313 313 313 314 315 317 318 316 315 317 317 316 316 318 319 319 316 313 311 312 313 313 313 314
317 317 317 317 316 317 317 317 317 316 316 316 316 315 315 315 315 315 315 315 315 315 315 316 316 316 316 316 316 317 318 319 319 320 320 320 320 320 320 320 319 318 318 317 316 315 314 314 313 313 313 312 312 312 311 311 311 310 310 310 309 309 309 311 314 316 316 315 313 312 312 315 315 315 316 316 316 315 313 310 311 313 314 313 312
317 317 316 316 317 317 317 317 317 317 317 317 316 316 315 315 314 314 314 314 314 314 315 315 315 315 316 316 316 317 318 319 319 319 319 319 319 318 318 318 317 316 315 314 313 313 313 313 313 312 312 312 311 311 311 311 310 310 310 310 309 308 309 311 314 315 313 311 310 310 311 313 314 313 312 313 313 313 313 312 312 313 313 312 311
316 316 316 317 317 317 317 317 317 317 317 317 316 316 315 315 314 314 313 313 313 313 313 313 314 314 315 316 316 317 317 318 318 318 318 317 317 317 316 315 314 313 312 312 312 312 312 312 312 311 311 311 311 311 311 310 310 310 310 310 309 309 309 309 310 310 311 312 312 311 311 312 312 312 312 312 313 313 313 314 313 313 313 312 312
316 316 317 317 317 317 317 317 317 317 317 316 316 316 315 315 315 314 313 313 312 312 312 312 312 313 314 315 316 316 317 317 317 317 316 316 315 314 313 312 312 311 312 312 312 312 312 311 311 311 311 311 311 311 311 311 310 310 310 310 310 310 309 309 309 309 311 311 311 310 310 310 310 311 310 311 312 312 312 313 312 312 313 312 311
316 317 317 317 317 317 317 316 316 316 316 315 315 315 315 315 315 315 315 315 314 313 311 311 311 312 313 314 314 315 314 314 314 313 313 312 311 311 311 311 312 312 312 312 311 310 310 310 310 310 310 310 310 310 309 309 309 309 309 309 309 310 309 309 309 309 309 309 309 309 309 309 309 309 309 309 310 309 309 310 310 310 310 310 309
317 317 317 317 316 316 316 316 315 315 315 314 314 315 315 315 315 316 316 316 315 314 313 311 311 311 311 311 311 311 311 311 311 311 311 311 311 312 312 312 312 311 310 309 309 308 308 307 308 308 308 308 307 307 307 307 307 307 307 308 308 308 308 308 308 308 308 308 308 308 308 308 308 308 308 308 308 308 308 308 308 308 308 308 309
317 317 316 316 316 316 315 314 313 314 314 314 314 314 314 315 315 315 315 315 315 315 314 314 313 313 312 312 312 312 312 312 312 313 313 312 312 312 311 311 309 308 307 306 305 305 304 304 305 305 305 305 304 304 304 304 305 305 305 305 306 306 306 306 306 307 307 307 307 306 307 307 306 306 307 307 307 307 307 307 307 307 307 307 307
317 316 316 316 316 315 313 312 312 313 313 313 313 313 314 314 315 315 315 314 314 314 314 314 313 313 313 313 313 312 312 312 312 312 311 311 310 309 308 306 305 304 303 303 303 303 303 302 303 303 303 303 303 303 303 303 303 303 304 303 303 304 304 304 304 305 305 305 305 303 305 306 305 305 307 307 307 306 306 307 307 306 306 306 306
316 316 316 316 315 313 312 311 312 312 312 312 313 313 314 314 314 314 314 313 313 313 312 312 312 311 311 310 310 310 310 310 309 309 308 307 306 305 303 303 302 302 302 302 302 302 302 302 302 302 302 302 302 302 302 302 302 302 302 302 302 302 302 302 303 303 303 303 303 302 303 305 305 305 306 306 306 306 306 306 306 305 305 306 307
316 316 316 315 314 313 312 311 311 311 312 312 313 314 314 314 313 313 312 311 311 310 310 310 309 309 308 308 308 307 307 306 305 305 304 303 302 302 301 301 301 301 301 302 302 302 302 302 302 301 301 301 301 302 302 302 302 302 301 301 301 301 301 301 302 302 302 302 302 302 302 303 303 303 304 305 306 306 306 306 305 305 306 306 308
316 316 316 315 314 313 311 309 309 311 311 312 313 313 313 313 312 311 310 309 309 308 308 308 307 307 306 305 305 304 304 303 302 302 301 301 301 301 301 302 302 302 302 301 302 302 301 301 301 301 301 301 301 301 301 301 301 301 301 301 300 300 301 301 301 301 301 301 301 301 301 302 302 302 303 304 305 306 306 306 306 306 305 306 309
316 316 315 315 314 312 310 308 309 311 312 312 313 313 312 311 310 309 308 308 307 307 306 306 305 304 304 303 302 302 302 301 301 300 301 301 301 302 302 302 302 302 301 301 301 301 301 301 301 301 300 300 301 301 301 301 301 300 300 300 300 300 300 301 300 300 300 301 301 301 301 301 301 301 302 303 303 304 305 305 306 306 305 305 308
316 316 315 314 313 311 309 309 310 311 312 312 312 311 311 310 309 308 307 306 306 305 304 303 303 302 301 301 301 300 300 300 301 301 302 302 302 302 302 302 301 301 301 301 300 300 300 300 300 300 300 300 300 300 300 300 300 300 299 300 300 300 299 300 300 299 299 299 300 300 300 300 300 300 301 301 302 303 304 304 305 305 305 304 305
316 316 315 314 312 310 310 310 310 311 311 311 311 310 310 308 307 306 305 304 303 302 302 301 301 300 300 300 300 300 300 301 302 302 303 303 302 302 301 301 300 300 300 300 299 299 299 299 299 299 299 299 299 299 299 299 299 299 299 299 299 299 299 299 299 299 299 299 299 299 299 299 299 299 300 301 301 301 302 303 304 305 305 305 303
316 316 315 313 311 310 310 310 310 309 310 309 309 309 308 307 306 304 303 302 301 300 300 300 300 300 300 300 301 301 302 302 302 302 301 301 301 300 300 299 299 299 299 299 299 299 298 298 298 298 298 298 298 298 298 298 298 298 298 298 298 298 298 298 298 298 299 299 298 298 298 298 298 299 300 300 301 301 302 302 303 304 304 304 303
316 316 314 312 311 310 310 309 309 308 308 308 308 308 307 306 304 302 301 300 299 299 299 300 300 301 301 301 301 301 300 300 300 300 299 299 299 299 299 299 299 299 299 299 299 299 298 298 298 298 298 298 297 297 297 297 297 297 297 297 297 297 297 298 298 298 298 298 298 298 298 298 298 298 298 299 300 301 301 302 303 303 304 303 303
316 315 313 311 311 310 309 308 307 307 307 307 307 307 305 304 302 300 299 299 299 299 300 301 301 301 301 301 300 299 298 298 298 298 298 298 298 298 298 298 298 298 298 298 298 298 298 298 298 298 298 298 297 297 297 297 297 297 297 297 297 297 297 297 297 297 298 298 298 298 298 298 298 298 298 298 299 300 301 302 302 303 303 303 303
315 314 312 312 311 310 308 307 306 306 305 305 305 304 303 302 300 299 298 298 299 300 301 301 301 300 299 299 298 298 297 297 297 297 297 298 298 298 298 298 298 298 298 298 298 298 298 298 298 298 298 298 298 297 297 297 297 297 296 296 296 296 296 296 297 297 297 297 297 298 298 298 297 297 297 297 298 298 299 300 301 302 303 303 303
315 314 313 312 311 309 308 307 306 305 304 303 303 302 301 300 299 298 298 299 299 300 301 300 299 298 297 297 297 297 297 297 297 297 297 297 297 297 297 297 297 297 297 297 297 297 297 297 297 297 297 297 297 297 297 296 296 296 296 295 295 295 296 296 296 296 296 297 297 297 297 297 297 297 297 296 297 297 298 299 300 301 302 303 303
314 314 313 311 309 308 309 308 306 304 302 301 301 301 300 299 298 298 299 299 300 300 300 299 298 297 297 297 297 297 297 297 297 297 297 297 297 297 297 297 297 297 297 297 297 297 296 296 297 296 296 296 296 296 296 296 295 295 295 295 295 295 295 295 295 295 296 296 296 297 297 296 296 296 296 296 296 296 297 297 299 300 301 302 302
315 314 311 309 308 309 309 306 303 301 299 299 299 299 298 298 298 299 299 299 299 298 298 297 297 297 297 297 297 297 296 296 297 297 297 297 297 297 297 296 296 296 296 296 296 296 296 296 296 296 296 296 296 296 295 295 295 295 295 295 295 294 294 294 294 295 295 295 295 296 296 296 296 296 295 295 295 296 296 297 297 298 300 301 301
313 311 310 310 309 308 306 303 300 299 298 298 298 297 298 298 299 299 298 298 297 297 296 296 296 296 296 296 297 297 296 296 296 296 296 296 296 296 296 296 296 296 296 295 295 295 295 295 295 295 296 296 295 295 295 295 295 295 295 295 294 294 294 294 294 294 294 294 295 295 295 295 295 295 295 295 295 295 295 296 296 297 298 300 300
311 311 311 309 306 303 300 299 299 298 297 297 297 297 298 298 298 297 297 296 296 296 296 295 296 296 296 296 296 296 296 296 296 296 296 296 296 295 295 295 295 295 295 295 296 296 296 296 296 296 296 296 296 296 295 295 295 295 295 294 294 294 294 294 294 294 294 294 294 294 295 295 295 295 295 295 295 295 295 296 296 297 298 299 300
309 308 306 303 300 299 298 298 298 298 297 297 297 298 298 297 296 295 295 295 295 295 295 295 295 295 295 295 295 296 296 295 295 296 295 295 295 295 295 295 295 295 295 295 296 296 296 296 296 296 296 296 296 296 295 295 295 294 294 294 294 294 294 294 293 293 294 293 294 294 294 294 295 294 294 294 294 294 295 295 296 296 297 298 299
305 303 300 299 298 298 298 298 298 297 297 296 297 296 296 295 294 294 294 295 295 295 295 294 294 294 294 294 294 295 295 295 294 294 294 294 294 294 294 294 294 294 295 295 295 296 296 296 296 295 295 295 295 295 295 294 294 294 294 293 293 293 293 293 293 293 293 292 292 292 293 293 294 294 294 294 294 295 294 294 294 295 296 296 298
300 299 298 298 298 298 297 297 297 296 295 295 295 294 294 294 294 294 294 294 294 294 294 293 293 293 294 294 294 294 294 294 294 293 293 293 293 293 293 293 293 293 294 294 294 294 294 295 294 294 293 293 293 293 293 293 293 293 293 293 293 292 292 292 291 291 291 290 290 290 290 291 291 292 292 293 293 294 293 292 292 293 293 294 295
298 298 297 297 297 297 296 296 295 294 294 293 293 293 293 293 293 293 293 293 293 293 293 293 293 293 293 293 293 293 293 293 293 293 293 293 293 293 293 293 293 293 293 293 293 293 293 293 293 293 292 292 292 292 293 293 293 293 293 293 292 291 290 290 289 289 288 288 288 288 288 288 289 289 289 290 290 291 291 291 290 290 291 291 292
297 297 296 296 296 295 295 294 293 293 293 293 293 293 293 293 293 293 293 293 293 293 292 292 292 292 292 292 292 292 292 292 292 292 292 292 292 291 292 292 292 292 292 292 292 292 292 292 292 292 292 292 292 292 292 292 292 292 291 291 291 290 289 288 288 287 287 287 287 287 287 287 287 288 288 288 288 289 289 289 289 289 289 289 290
295 295 295 295 294 294 293 293 292 292 292 292 292 292 292 292 292 293 293 293 292 292 292 292 292 292 291 291 291 291 291 291 291 291 291 291 290 290 291 291 291 291 291 291 291 291 291 291 291 291 290 291 291 291 291 291 291 291 291 290 290 289 288 287 287 286 286 286 287 287 287 287 288 288 288 287 288 288 288 288 288 288 289 289 289
294 293 293 293 292 292 292 291 291 292 292 292 292 292 291 291 292 292 292 292 292 292 292 291 291 291 291 291 290 290 290 290 290 290 290 290 290 290 290 290 290 290 290 289 289 289 289 289 289 288 288 288 289 289 289 289 289 289 288 288 288 288 287 287 287 286 286 287 287 288 288 288 288 288 288 288 288 288 288 288 289 289 289 289 289
292 291 291 291 291 291 291 291 291 291 291 291 291 291 291 290 291 291 291 291 291 291 291 291 291 290 290 290 290 290 290 290 290 290 289 289 290 290 289 289 289 289 289 288 288 288 287 287 286 286 286 287 287 287 287 287 287 286 286 286 287 287 287 287 287 287 287 287 287 288 288 289 289 289 289 289 289 289 289 288 288 289 289 289 289
290 290 290 290 290 290 290 290 290 290 290 290 290 290 289 289 290 290 290 290 290 290 290 290 290 290 289 289 289 289 289 289 289 289 289 289 289 289 289 288 288 288 288 287 286 285 285 285 285 285 286 286 286 286 285 285 285 285 285 285 286 286 287 287 287 287 287 287 287 287 288 289 290 290 289 289 289 289 289 289 289 289 289 289 289
289 289 289 289 290 290 290 289 290 289 289 289 289 288 288 289 289 289 289 290 290 289 289 289 289 289 289 289 289 289 289 289 289 288 288 288 288 288 288 288 288 287 286 285 284 284 284 284 284 285 285 285 285 285 284 284 284 283 283 284 284 284 285 285 285 285 285 285 285 286 287 288 289 289 289 290 290 290 290 290 289 289 289 290 290
287 288 288 288 288 289 289 289 288 288 288 288 288 288 288 288 288 289 289 289 289 289 288 288 288 288 288 289 289 289 289 288 288 288 288 288 288 288 287 287 287 286 285 285 285 285 285 285 285 284 284 283 283 283 282 282 281 281 281 281 281 281 282 282 282 282 283 283 283 284 285 286 286 287 288 289 289 289 289 289 289 289 289 290 290
286 286 287 287 287 287 288 287 287 287 287 287 287 287 288 288 288 288 288 288 288 288 287 287 287 287 287 287 287 287 287 287 287 287 287 286 286 285 285 284 284 284 285 285 286 286 285 285 284 284 283 283 282 282 281 281 280 280 280 280 280 280 280 280 280 280 281 281 282 283 284 285 286 286 286 287 287 288 288 288 289 289 289 290 290
286 286 286 286 287 287 287 287 287 287 287 287 287 287 287 287 287 287 287 287 287 287 287 286 286 286 285 285 285 285 285 284 284 284 283 283 282 282 282 283 284 284 284 285 284 284 284 284 283 283 283 282 282 281 281 280 280 280 280 279 279 279 279 279 278 278 279 279 280 281 282 283 284 285 285 286 287 287 288 289 289 289 290 290 290
286 286 286 286 286 286 286 286 286 286 286 286 286 287 286 286 286 286 286 286 286 286 286 285 285 284 284 283 283 283 282 282 281 281 280 280 281 281 282 283 283 283 283 283 283 283 282 282 282 282 281 281 281 280 280 280 280 279 279 279 278 278 278 278 277 277 277 278 278 278 279 280 281 282 284 285 286 286 286 287 288 289 290 291 291
286 286 286 286 286 286 286 286 286 286 286 286 286 286 286 286 285 285 285 285 285 285 284 284 283 283 282 281 281 280 280 280 280 280 280 281 281 282 282 282 282 282 281 281 281 281 281 281 281 280 280 280 280 280 279 279 279 278 278 278 278 277 277 277 277 276 276 276 276 277 277 278 279 279 281 282 283 284 284 286 287 287 288 289 290
286 286 285 285 285 285 285 285 285 285 285 285 285 285 285 285 285 284 284 284 283 282 282 281 280 280 280 279 279 279 280 280 280 281 281 281 281 282 282 282 281 281 281 281 280 280 280 280 280 280 280 280 280 279 279 279 279 278 278 278 277 277 276 276 276 276 275 275 275 275 276 276 276 277 278 279 281 281 282 284 285 286 287 287 288
285 285 285 284 284 284 284 284 284 284 285 285 285 284 284 284 283 282 281 281 280 279 279 278 278 278 279 280 280 280 280 280 280 281 281 281 281 281 281 281 281 281 281 281 280 280 280 280 280 280 280 280 280 279 279 279 279 278 278 277 277 276 276 275 275 275 275 274 274 274 274 274 275 276 276 277 278 279 280 281 283 284 285 286 286
283 283 283 283 283 283 283 284 284 284 284 284 283 283 282 282 281 280 279 278 278 278 278 278 278 279 280 280 280 280 280 280 280 281 281 281 281 281 281 281 281 281 281 280 280 280 280 279 279 279 279 279 279 279 279 278 278 277 277 277 276 276 276 275 275 274 274 274 274 274 274 274 274 275 275 275 276 277 278 279 281 282 283 284 285
281 281 281 281 282 282 282 282 282 282 282 282 281 281 280 280 279 279 278 278 278 278 278 279 279 279 280 280 280 280 280 280 280 280 280 280 280 281 281 281 281 281 280 280 280 279 279 279 278 278 278 278 278 278 278 277 277 277 277 276 276 276 275 275 274 274 274 274 274 274 274 274 275 275 275 276 276 277 277 278 279 280 281 282 283
279 279 280 280 280 280 280 280 280 280 280 280 279 279 279 279 279 278 278 278 278 278 279 279 279 279 279 279 280 280 280 280 280 280 280 280 280 280 280 280 280 280 280 280 279 279 279 278 278 278 278 278 278 278 278 277 277 277 277 277 276 276 276 275 275 275 275 275 275 275 275 275 275 275 276 276 276 277 277 278 278 279 280 281 282
278 278 278 278 278 279 279 279 279 279 279 278 278 278 278 278 278 278 278 279 279 279 279 279 279 279 279 279 279 279 280 280 280 280 279 280 280 280 280 280 280 280 280 279 279 279 279 278 278 278 278 278 278 277 278 278 278 278 278 278 277 277 276 276 276 276 275 275 275 275 275 276 276 276 276 276 277 277 277 278 278 278 279 280 281
277 277 277 277 277 278 278 278 278 278 278 278 278 278 278 278 278 278 278 278 278 278 279 279 279 279 279 279 279 279 279 280 280 279 279 279 279 279 279 279 279 279 279 279 279 279 278 278 278 278 278 278 278 278 278 278 278 278 278 278 277 277 277 277 277 276 276 276 276 276 276 276 276 277 277 277 277 277 278 278 278 278 278 279 280
276 276 276 277 277 277 277 277 278 278 278 278 278 278 278 278 278 278 278 278 278 278 278 278 278 278 279 279 279 279 279 279 279 279 279 279 279 279 279 279 279 279 279 279 278 278 278 278 278 278 278 278 278 278 278 278 278 278 278 277 277 277 277 277 277 277 277 277 276 277 277 277 277 277 277 278 278 278 278 278 278 279 279 279 280
Wind_Speed
28 29 29 29 29 28 27 28 28 29 30 31 32 32 33 34 33 33 32 31 31 31 31 31 31 30 29 28 27 27 27 26 25 24 24 24 24 24 22 22 22 22 21 20 20 19 20 21 21 21 20 21 22 23 23 23 24 25 25 27 28 29 30 31 36 45 49 46 44 43 42 41 42 41 39 38 37 34 34 35 34 33 32 32 32
29 29 30 30 30 28 26 26 26 27 28 29 30 30 31 31 30 30 29 28 27 28 28 28 28 27 26 25 25 26 26 26 25 24 24 24 24 23 22 22 22 21 21 20 20 19 19 20 21 20 20 21 22 23 23 23 23 25 25 26 28 28 27 30 33 40 47 48 45 44 43 42 43 43 41 41 39 36 37 38 37 35 35 35 36
29 29 30 30 28 25 24 24 24 25 25 25 26 27 27 27 27 26 26 25 25 25 25 25 25 25 25 24 25 25 25 25 24 24 24 24 24 23 22 21 21 20 20 20 19 18 19 20 21 21 20 21 23 23 23 24 24 25 26 26 28 29 27 28 32 36 43 48 47 43 42 42 43 44 43 42 39 38 40 41 39 37 37 37 38
29 29 29 28 25 23 22 21 21 21 21 21 22 22 22 23 23 23 23 22 22 22 22 22 23 24 24 25 25 25 25 24 24 24 24 24 23 22 21 20 20 20 20 19 19 19 20 21 21 21 21 22 23 23 24 25 25 26 27 27 28 29 28 28 30 33 38 44 47 43 42 43 44 43 42 41 40 41 44 43 40 40 39 37 37
29 29 28 26 24 22 21 20 19 19 18 18 18 19 20 20 21 21 21 21 20 20 20 20 21 22 23 24 24 25 24 24 24 24 24 23 22 21 20 20 20 20 19 19 19 19 20 20 20 20 21 22 23 23 23 24 25 26 27 27 27 28 27 27 27 28 32 39 45 44 43 43 44 43 41 41 43 45 45 43 41 40 40 37 36
31 29 27 26 24 22 21 20 18 17 17 16 16 17 17 18 19 19 20 19 19 19 19 19 19 20 21 22 23 24 24 24 24 24 23 22 21 20 20 20 19 18 18 17 18 18 19 19 19 19 20 21 21 21 22 23 24 25 25 25 25 25 26 26 24 26 31 37 40 42 41 41 42 42 41 41 44 45 44 43 42 40 40 39 38
31 30 28 27 25 23 21 20 19 18 17 17 17 17 17 17 17 17 18 18 19 18 18 18 18 18 19 19 20 21 22 22 22 21 21 20 19 19 18 17 17 16 16 16 17 18 18 18 18 18 18 19 20 21 22 22 23 23 23 23 24 24 25 25 24 27 31 33 35 37 39 40 40 41 41 41 42 44 43 43 45 45 43 43 42
32 30 29 27 25 23 22 21 20 20 19 19 18 18 17 17 17 17 17 17 17 17 17 17 17 17 17 17 17 17 17 18 18 18 17 17 16 16 15 15 16 16 17 17 17 17 16 16 15 16 17 18 19 20 20 21 21 21 21 22 23 24 25 25 25 27 29 32 35 37 38 40 41 41 42 41 41 42 41 40 46 50 47 46 46
32 31 29 28 26 24 23 22 22 21 20 20 20 19 18 18 18 17 17 17 16 16 16 16 15 15 15 14 14 13 13 14 14 14 14 14 14 15 15 16 17 17 17 16 15 13 13 14 14 15 16 17 17 18 18 19 20 20 21 21 23 24 25 26 26 27 29 32 35 36 37 39 40 41 42 42 40 42 42 41 46 50 49 50 52
33 32 30 28 26 25 24 23 22 21 21 21 20 20 19 19 18 17 17 16 15 15 15 14 13 13 12 11 11 11 12 12 13 13 14 15 15 16 16 16 16 15 14 12 11 11 12 13 14 15 15 16 16 16 17 17 19 20 21 23 24 25 26 26 27 27 29 31 33 34 36 38 39 39 41 41 40 42 42 42 45 48 48 51 53
34 32 30 28 27 26 25 23 22 21 21 21 20 19 19 18 18 17 17 16 15 14 13 12 11 10 10 10 11 11 12 13 13 14 14 15 15 14 14 13 12 11 11 11 11 11 12 13 14 14 15 15 15 16 16 17 18 19 20 22 23 24 24 25 26 26 26 28 30 31 33 36 37 37 38 38 38 39 39 39 40 42 42 44 48
35 33 31 30 29 26 24 23 22 22 21 20 20 19 19 18 17 17 16 15 14 14 12 11 10 9 9 10 10 11 12 12 12 13 13 13 12 12 11 11 10 11 11 12 12 11 12 13 13 13 13 13 13 14 14 14 15 16 17 18 18 19 20 21 23 23 24 25 27 29 30 32 34 35 36 37 38 39 39 39 38 39 40 42 46
36 35 33 31 28 26 23 22 22 23 22 21 20 20 19 18 17 16 15 14 14 13 12 10 9 9 8 9 9 10 11 10 11 11 12 12 11 10 10 10 10 10 11 11 11 10 10 10 10 9 10 10 11 11 11 12 13 13 14 15 16 17 17 18 19 20 22 24 26 28 28 29 32 33 34 35 37 39 40 41 40 39 40 42 45
38 36 34 31 28 25 24 23 24 24 23 22 20 19 19 18 17 16 14 13 12 12 11 10 9 8 8 8 9 10 10 10 10 11 11 11 11 10 9 8 7 7 8 8 7 7 7 8 8 7 8 9 10 11 12 13 14 15 15 16 17 18 17 17 18 19 21 22 25 27 27 27 29 31 31 32 34 36 38 40 41 40 40 43 47
39 36 34 31 28 26 25 25 26 25 23 22 20 19 18 17 16 15 13 12 12 11 10 9 8 8 8 8 9 10 10 10 10 10 11 10 9 7 5 4 4 4 5 6 6 7 8 10 10 10 10 11 12 13 15 16 18 19 19 20 21 21 19 19 20 21 21 22 24 26 26 26 28 29 30 30 31 33 34 37 38 39 41 44 47
40 37 35 32 30 28 26 26 26 26 24 23 21 19 18 16 15 14 13 12 11 10 10 9 9 8 8 9 10 10 10 10 9 9 8 7 6 4 3 3 4 5 7 8 8 9 11 12 13 13 13 14 15 15 17 19 20 21 22 23 23 23 21 20 23 24 23 24 24 25 26 26 27 28 29 30 31 32 32 34 35 35 37 40 43
41 39 36 34 31 29 27 27 27 27 25 23 22 20 18 16 15 14 13 12 11 11 11 10 10 9 9 9 10 11 10 8 7 7 6 5 5 5 5 6 7 8 9 10 10 11 13 14 15 16 16 16 17 17 18 19 21 22 23 24 24 24 22 22 24 24 24 25 26 25 26 26 26 28 28 28 30 30 31 33 32 30 32 35 39
42 40 37 34 32 29 28 28 28 27 25 23 21 20 18 17 15 14 14 13 12 12 11 11 10 9 9 9 9 9 8 6 5 6 6 6 7 7 8 8 9 10 11 11 11 12 13 15 16 17 18 18 19 19 19 20 22 23 24 25 26 26 24 25 27 26 26 27 27 26 27 26 27 29 28 28 28 28 29 32 30 28 30 32 35
43 40 36 33 31 29 28 28 28 26 24 23 21 20 18 17 16 15 14 13 12 11 10 10 9 8 8 8 7 7 7 6 6 7 8 9 9 10 10 11 11 12 12 12 12 12 13 15 16 18 19 20 20 20 20 22 23 25 26 27 29 29 28 29 30 30 30 30 30 29 29 28 29 29 28 28 28 27 28 29 28 27 29 31 30
43 38 35 32 30 28 27 27 26 25 24 22 21 20 18 17 16 14 13 12 11 10 9 8 8 7 7 7 6 6 7 8 9 9 10 11 11 11 12 13 14 14 14 14 14 14 15 16 17 19 20 21 22 22 23 24 25 27 28 29 30 31 31 32 32 32 33 34 33 33 32 32 31 30 29 28 29 28 27 27 27 26 27 29 28
41 37 34 32 29 27 27 26 26 25 24 23 21 20 18 17 16 14 13 12 10 9 9 8 7 6 6 7 7 7 7 9 10 11 11 12 12 13 13 15 16 16 16 16 17 17 17 18 18 20 22 23 23 24 25 26 27 29 29 30 30 31 32 34 34 34 35 35 36 36 35 34 34 32 31 30 30 30 29 27 26 25 25 27 27
40 37 35 32 28 26 26 26 26 25 24 23 21 20 18 17 16 14 13 12 11 10 9 8 7 8 8 8 8 8 8 9 10 11 12 12 13 14 15 16 17 18 18 18 18 19 20 20 21 22 23 24 25 26 27 28 29 30 30 30 31 31 32 34 34 35 35 36 37 37 37 36 36 35 33 32 31 32 31 30 28 26 25 25 26
40 37 33 29 26 25 25 25 24 24 24 22 21 20 19 17 16 15 14 13 13 12 10 9 9 9 9 9 9 9 9 10 10 11 12 13 14 15 16 17 18 19 20 20 20 21 22 23 23 24 25 25 26 27 28 29 29 30 30 31 31 32 32 33 34 35 36 36 37 38 37 37 36 36 35 34 34 33 33 33 31 29 28 27 26
38 35 32 30 28 27 25 25 25 26 25 24 23 21 20 19 18 17 16 15 14 13 12 11 10 9 10 11 11 10 10 11 12 12 13 14 15 16 17 18 19 20 21 22 22 23 24 24 25 25 26 26 27 28 29 29 29 30 30 30 31 31 32 33 34 34 36 37 37 38 38 37 36 36 36 35 35 35 34 34 33 32 31 30 29
37 36 35 32 30 28 26 26 28 28 27 26 24 23 22 20 19 18 17 16 15 14 14 13 12 11 11 12 12 12 11 11 12 13 13 14 15 17 18 18 19 20 22 22 23 24 25 26 26 27 27 27 28 29 29 30 30 30 30 31 32 32 33 34 35 35 37 37 37 38 38 38 37 37 37 36 36 36 35 35 35 34 33 32 32
38 38 37 34 30 28 28 29 30 29 27 25 24 22 21 20 19 18 17 16 15 14 14 13 12 12 12 13 13 12 12 12 13 14 14 15 16 18 19 19 20 21 22 22 24 25 26 27 28 28 29 29 30 31 31 31 32 32 32 33 34 34 35 35 35 36 37 37 37 38 38 38 38 38 38 38 38 37 36 36 37 36 35 34 34
41 40 37 35 33 32 31 31 30 28 27 25 23 21 20 18 17 16 15 15 14 14 13 13 13 13 13 13 13 13 13 13 14 15 16 16 17 18 19 20 21 22 22 23 24 26 27 28 28 29 30 30 31 32 33 33 34 35 35 36 36 36 36 36 36 37 37 37 38 38 38 39 39 40 39 39 39 38 37 37 38 37 37 36 36
42 39 36 35 34 33 32 31 29 28 26 24 22 20 18 17 16 15 15 15 14 14 14 13 14 14 14 14 14 14 14 14 16 17 17 18 19 19 20 21 22 23 24 25 27 28 29 30 30 31 32 32 33 34 35 35 36 36 37 37 37 38 38 38 38 38 38 38 38 38 38 39 39 40 40 40 40 39 38 37 38 38 37 37 37
37 36 35 34 34 33 31 30 28 27 25 23 21 20 19 17 16 16 17 16 15 15 14 13 13 15 14 14 15 15 15 15 16 18 18 19 20 21 22 23 24 25 26 28 29 31 32 32 33 33 34 35 35 36 36 36 37 37 37 38 38 38 38 38 38 38 38 37 38 38 38 38 39 39 39 40 40 39 38 37 37 37 37 36 37
35 35 35 33 31 30 28 28 27 26 24 23 21 21 20 19 18 17 17 17 15 15 14 12 13 14 14 14 15 16 16 16 17 18 19 20 21 22 23 24 25 26 27 28 30 32 33 34 34 34 35 36 36 37 38 38 39 39 39 39 39 39 38 38 37 37 37 36 37 37 38 38 39 39 39 40 40 39 38 37 36 36 36 36 38
33 32 31 29 28 27 26 25 26 25 24 23 22 21 20 19 17 16 16 15 14 14 13 12 12 14 15 15 16 17 17 18 18 19 20 21 22 23 24 24 25 26 28 29 30 32 32 33 34 34 34 35 36 36 37 38 39 40 40 41 40 39 38 38 37 37 37 36 36 36 36 36 37 38 38 39 40 40 39 37 36 35 35 35 37
30 29 28 27 26 26 25 25 25 25 24 23 22 21 19 17 16 15 15 15 14 14 13 13 13 14 16 16 17 17 18 18 19 20 21 22 23 24 25 25 26 27 27 28 30 30 30 31 33 34 34 34 35 35 36 38 39 39 40 41 41 40 39 38 37 36 36 36 36 35 35 35 36 37 37 37 38 38 38 36 35 34 35 35 36
26 27 27 26 26 26 26 25 25 24 23 22 20 18 17 17 16 16 15 14 14 14 14 14 15 15 16 17 17 18 18 19 20 21 22 22 23 24 25 25 26 26 26 27 28 29 29 30 31 32 32 33 34 35 35 36 38 38 39 40 41 41 39 38 36 35 35 35 36 36 36 35 35 35 35 35 36 36 37 36 35 34 35 35 36
24 24 24 24 24 24 24 24 23 21 20 18 17 16 16 16 16 16 16 15 14 14 15 15 16 16 17 17 17 18 19 20 21 22 22 23 23 24 25 25 26 26 25 26 26 27 28 29 30 30 31 32 33 34 35 36 37 38 40 40 41 41 39 37 36 36 36 35 35 35 36 35 34 34 35 36 36 36 36 36 35 35 35 35 36
22 21 21 21 21 21 20 20 18 17 16 16 16 16 16 15 15 15 16 16 16 15 16 16 17 17 18 18 18 19 20 21 22 22 23 23 23 24 24 25 25 24 24 24 25 26 26 27 28 28 28 30 31 32 34 35 36 37 38 39 40 40 39 38 37 36 36 35 36 36 36 36 35 36 37 37 37 35 35 35 35 35 36 35 36
16 16 16 16 16 16 15 15 14 14 14 14 15 15 15 15 14 14 15 15 16 17 18 18 19 19 19 19 20 21 21 22 22 22 22 22 23 23 23 23 23 23 23 23 23 24 24 24 24 26 27 29 31 32 33 34 34 34 35 36 37 38 38 37 36 35 35 36 37 37 37 38 37 36 36 37 37 36 36 36 36 36 36 36 36
11 11 12 12 12 12 12 12 12 12 13 13 14 15 15 15 15 15 15 16 17 18 19 20 20 20 20 20 21 21 21 21 21 20 20 21 21 21 21 21 21 21 21 21 21 21 21 21 23 25 26 28 29 29 29 30 31 32 32 33 33 34 34 35 35 36 37 39 39 39 38 38 37 36 36 37 38 38 38 37 36 36 36 35 35
7 7 8 9 9 9 10 10 11 12 13 14 14 15 16 16 16 16 17 17 18 19 20 21 21 21 21 21 21 21 20 20 20 20 19 20 19 19 19 19 19 19 19 19 19 19 20 21 22 23 24 25 27 28 30 32 34 35 37 38 38 38 38 39 40 40 40 40 40 40 39 39 39 38 38 38 37 36 38 38 37 38 39 37 36
5 6 6 7 8 9 10 11 12 13 14 15 16 16 17 17 18 18 18 18 19 19 20 20 20 21 21 21 20 20 20 20 20 19 19 19 18 18 18 18 18 18 19 20 21 22 23 24 25 26 27 29 31 33 35 37 39 40 41 42 42 42 41 40 40 41 41 41 40 39 39 39 40 39 39 39 39 40 42 42 42 41 40 39 38
7 8 8 9 10 11 12 13 14 15 15 16 17 18 18 18 18 19 19 18 18 19 18 18 19 19 19 18 18 18 18 17 17 17 17 16 16 15 15 15 16 18 19 21 23 24 25 26 27 28 29 31 33 35 36 38 40 41 42 43 43 44 44 42 40 40 41 42 41 40 38 37 36 37 38 39 41 42 43 43 42 40 38 38 41
10 11 11 12 12 13 13 14 15 16 17 17 18 18 18 19 18 18 18 18 17 17 17 17 17 17 16 15 15 15 15 14 14 13 13 12 12 12 12 13 15 17 19 21 22 24 25 26 27 28 30 31 32 34 35 37 38 40 41 43 44 45 46 45 43 40 40 40 41 42 43 41 39 39 37 35 34 35 35 36 39 41 41 40 39
13 13 13 14 14 14 14 15 16 16 17 17 17 18 18 18 18 17 17 17 17 17 17 17 16 15 14 13 12 12 11 11 10 10 9 8 9 10 12 14 15 17 18 19 21 22 24 25 26 27 28 30 31 32 33 35 36 37 38 40 41 42 44 44 43 42 41 41 42 42 42 42 43 44 44 42 40 39 38 35 35 38 41 40 37
16 16 16 16 16 16 16 16 16 16 16 17 17 17 17 17 17 17 17 17 17 16 16 15 14 13 11 10 9 8 8 7 7 7 7 8 9 11 12 13 14 14 15 16 18 20 21 23 24 24 25 26 27 28 29 30 32 33 34 35 36 37 39 39 40 39 39 40 41 40 40 41 43 44 45 45 44 42 41 40 37 35 35 34 34
17 17 17 17 17 17 17 17 17 17 17 17 17 17 17 17 17 17 17 16 15 14 13 12 11 10 9 7 6 6 6 5 5 6 7 8 9 10 11 11 12 12 13 14 15 16 18 19 20 21 22 22 23 24 25 26 27 28 29 31 32 33 34 35 36 36 36 37 38 39 39 38 38 38 39 40 41 42 44 46 45 42 39 36 35
17 18 17 18 17 17 17 18 17 17 17 17 17 17 17 16 16 15 14 13 12 11 11 10 9 8 7 5 5 4 4 4 5 6 7 7 8 9 9 10 11 12 12 13 14 15 16 18 19 20 21 22 23 24 25 25 26 26 27 28 30 31 32 32 33 34 35 36 37 38 38 38 38 38 39 39 40 43 45 46 47 47 46 43 40
17 17 17 17 16 17 17 17 17 17 17 17 16 15 15 15 14 13 12 12 11 10 9 8 7 6 5 4 3 3 3 4 5 6 6 7 8 8 9 10 11 11 12 14 15 16 17 18 20 21 22 23 24 25 25 26 26 26 26 27 28 29 29 30 31 32 33 34 35 37 38 39 40 40 40 39 39 40 42 43 45 47 47 45 44
15 15 15 15 14 15 15 15 15 15 15 15 14 13 13 12 12 11 11 10 9 8 7 6 5 5 4 3 3 3 4 4 5 6 7 8 9 9 10 11 12 12 14 15 16 17 18 19 20 21 22 23 24 24 25 25 25 25 25 25 26 27 27 28 29 30 31 32 33 35 36 37 39 39 39 40 41 41 42 43 43 45 46 46 47
13 13 13 12 12 12 13 12 12 13 12 12 11 11 10 10 10 9 8 8 7 6 5 4 4 4 4 4 4 4 5 5 6 7 8 9 10 11 12 12 13 14 15 16 17 18 19 20 20 21 22 22 23 23 23 23 24 24 24 24 25 26 26 27 27 29 30 31 32 33 34 36 37 38 38 39 39 40 41 41 40 40 41 43 44
11 10 10 10 10 11 10 10 10 10 9 9 8 8 7 7 7 6 6 5 5 4 4 4 4 5 5 5 5 6 6 6 7 8 9 10 11 12 12 13 14 15 15 16 17 18 18 19 20 21 21 22 22 23 24 24 24 24 24 25 25 25 25 26 26 27 29 31 32 33 34 35 36 38 38 38 38 38 39 39 38 38 38 38 38
9 9 9 9 9 9 9 9 8 8 8 7 7 6 6 5 5 5 5 5 5 5 5 5 6 6 6 6 6 6 7 7 8 9 10 11 11 12 12 13 14 15 15 16 17 17 18 19 19 20 20 21 22 22 23 24 24 25 25 25 25 25 26 26 26 28 29 31 33 34 34 35 36 37 36 36 35 36 36 37 36 35 35 35 34
9 9 9 9 9 9 9 8 8 8 7 7 6 6 6 5 5 5 5 5 6 6 7 7 7 7 7 7 7 7 7 8 8 9 10 11 11 12 13 13 14 14 15 15 16 17 18 18 19 19 20 21 22 22 23 24 24 25 25 26 26 26 26 27 28 29 30 32 33 34 34 34 34 35 34 34 33 32 33 34 33 33 33 32 32
Wind_Direction
243 242 243 247 255 260 258 254 253 253 253 253 254 255 257 258 261 264 266 267 269 269 270 270 270 269 268 266 264 262 261 258 256 254 254 255 254 253 252 251 252 253 255 256 257 260 265 269 273 277 282 285 285 287 289 291 292 292 292 292 291 289 289 287 286 290 295 296 297 300 302 304 305 305 305 306 307 307 307 307 306 306 308 307 305
244 244 246 251 256 257 255 251 248 248 249 250 252 253 255 258 260 261 262 263 264 266 267 267 267 265 262 260 258 258 258 256 254 252 252 252 252 251 251 250 252 254 256 256 258 262 267 271 273 277 280 281 282 284 287 289 289 289 289 288 288 288 287 288 288 289 294 297 298 300 303 304 303 305 308 309 310 310 308 308 307 306 307 308 305
248 248 251 252 253 251 246 242 242 243 245 248 250 253 254 256 256 255 255 256 259 262 263 262 261 258 257 256 254 254 254 254 252 250 250 251 251 251 252 253 255 257 257 258 262 266 269 270 271 273 276 279 282 287 289 290 289 288 288 287 287 289 288 290 290 288 292 297 299 300 302 303 302 303 307 309 308 307 307 306 306 304 305 306 305
250 250 251 249 244 238 233 233 235 236 240 243 246 249 250 250 251 251 252 255 257 259 259 257 256 255 255 254 253 253 252 251 250 250 251 251 252 253 255 256 257 257 258 259 262 264 264 266 270 275 282 285 289 293 294 294 295 293 292 292 291 291 291 290 287 286 289 295 300 301 300 300 301 302 305 306 302 301 302 303 303 303 304 304 304
249 248 245 238 231 228 228 230 232 235 239 242 245 248 249 250 252 253 256 258 258 258 257 255 255 256 257 256 255 253 252 251 250 250 252 253 255 257 257 256 254 254 257 259 261 263 266 273 281 288 292 293 293 296 298 298 297 295 294 294 291 290 290 288 287 288 289 291 296 300 298 296 299 302 303 300 299 301 303 302 302 303 306 306 303
245 240 233 226 224 225 228 232 235 240 244 247 250 252 253 254 255 256 257 258 259 259 258 257 257 258 258 257 256 254 252 251 251 253 256 258 259 258 255 253 254 256 260 263 267 273 279 286 292 293 291 291 293 295 295 293 291 291 293 295 296 296 296 297 296 292 286 283 287 294 298 299 299 301 300 298 298 301 304 305 305 304 307 306 302
237 229 223 221 223 226 230 234 238 242 246 249 252 253 254 255 256 257 259 260 260 261 261 261 261 260 260 258 257 256 254 254 256 257 259 259 257 256 255 256 260 263 267 272 277 283 287 288 288 286 284 286 288 288 287 287 289 291 296 300 300 298 296 295 290 285 286 289 294 299 303 304 301 301 302 300 299 302 305 308 308 307 307 306 304
226 221 220 222 226 229 233 237 240 245 248 250 252 253 253 254 255 256 259 260 263 266 267 269 268 266 265 263 261 261 259 258 257 257 257 256 255 256 258 261 264 268 273 277 281 282 283 282 280 279 279 280 281 282 285 289 293 296 300 301 299 296 294 292 288 289 293 297 299 300 302 303 302 302 304 303 302 305 308 308 306 305 307 307 304
220 220 223 226 229 232 236 240 243 246 250 251 253 254 254 255 256 257 259 261 264 266 268 269 270 269 267 265 263 260 257 255 253 253 254 255 257 259 261 265 269 273 276 279 280 280 278 278 278 278 278 279 280 283 287 291 295 299 301 301 300 299 298 297 295 294 293 292 294 296 298 302 305 304 304 304 303 304 304 303 301 302 303 302 299
220 223 226 229 231 234 236 239 242 245 248 250 252 253 254 254 255 256 258 260 262 264 266 267 266 266 264 261 258 254 252 252 252 254 255 257 260 263 266 270 272 275 278 278 277 277 276 277 276 276 277 278 280 283 287 291 295 298 300 300 302 303 303 303 301 297 295 295 298 299 298 304 309 304 302 304 303 301 301 300 298 299 300 301 300
223 226 228 230 231 232 234 237 241 244 247 249 251 252 253 254 255 256 256 257 259 261 263 264 261 260 257 253 252 250 251 253 255 257 259 261 264 266 269 272 274 277 278 276 271 269 269 271 271 273 275 278 282 285 289 292 294 295 297 299 303 306 306 308 307 306 303 302 305 304 301 306 312 308 305 308 307 305 306 305 303 304 305 304 302
226 227 227 228 229 231 234 238 241 243 245 248 250 252 254 255 255 256 256 256 258 258 259 259 257 253 250 247 249 250 251 254 256 259 261 262 264 266 268 272 273 274 273 271 269 266 264 266 269 273 277 280 285 288 291 294 295 297 300 302 305 307 307 309 311 312 310 307 308 310 307 309 316 315 310 311 310 308 307 305 302 301 301 299 297
225 225 225 227 229 231 235 237 238 239 239 241 244 247 250 251 252 252 252 252 253 253 252 250 247 243 240 241 243 245 247 250 252 255 258 260 262 265 268 270 270 270 269 269 271 270 269 270 271 276 283 287 292 297 299 303 305 306 309 310 311 311 311 313 313 311 310 308 309 314 314 311 315 317 313 310 309 307 305 303 299 296 296 295 294
223 223 224 226 228 230 232 234 236 236 235 235 237 240 242 243 245 245 246 246 246 245 244 241 237 233 231 232 236 240 244 246 249 253 257 261 264 265 265 265 262 263 266 270 276 281 283 287 287 286 289 295 301 306 308 311 313 314 316 317 318 318 318 317 313 307 307 307 307 312 315 311 312 316 314 311 309 306 306 305 301 296 294 294 295
222 222 224 225 226 228 229 232 234 233 232 231 232 234 236 237 239 240 240 240 240 240 239 236 231 227 227 232 238 243 246 248 251 255 259 262 265 263 260 259 257 265 275 282 290 297 298 300 301 299 298 300 304 308 312 315 317 318 318 319 318 319 320 318 312 307 308 308 307 309 312 311 312 314 314 313 312 309 308 305 299 294 294 296 298
221 221 222 223 225 226 226 228 231 232 230 228 227 229 231 233 233 234 233 233 233 234 235 235 234 232 232 237 243 246 247 248 250 251 253 256 259 262 269 278 283 283 285 288 293 298 300 300 301 302 303 303 303 307 311 314 315 315 315 316 315 317 321 318 311 310 311 310 309 309 311 311 312 313 314 316 315 315 312 307 303 301 299 299 301
221 221 222 223 223 223 222 225 229 230 227 224 223 223 225 227 228 228 227 227 229 232 235 237 238 238 235 235 241 245 244 242 240 240 244 253 264 277 286 288 288 285 284 287 293 295 297 298 300 301 302 302 302 306 309 310 311 311 311 312 312 315 319 316 310 311 312 310 309 309 310 312 313 314 316 317 317 317 314 311 311 309 303 299 301
221 221 221 222 221 220 221 224 227 227 225 222 220 219 219 221 223 225 227 229 232 235 238 240 241 240 235 228 230 238 240 236 240 249 260 269 276 283 285 284 282 280 280 284 287 290 292 294 296 298 298 299 301 305 308 309 310 310 311 312 313 315 317 314 311 313 313 311 310 310 309 311 313 314 315 316 317 317 314 313 315 310 303 299 299
221 221 220 220 220 220 222 225 226 225 223 220 218 216 216 218 221 226 230 232 235 238 241 241 238 232 225 215 213 228 241 249 261 271 277 281 284 286 286 285 283 282 283 285 286 289 290 292 295 297 299 301 304 307 309 310 311 312 313 314 315 317 317 314 314 315 314 313 313 313 313 313 314 314 315 314 316 316 314 315 315 309 305 301 296
221 220 219 219 220 221 223 224 223 222 221 219 216 214 214 217 221 226 230 232 234 232 228 226 222 218 219 218 221 238 256 266 274 280 283 286 291 291 290 290 289 289 291 293 294 297 297 298 300 301 302 304 307 309 311 312 312 312 314 315 315 316 315 313 313 314 314 314 314 314 315 316 315 315 316 314 314 314 313 314 314 310 306 303 297
220 218 218 218 219 221 222 222 221 221 221 218 216 214 214 218 223 227 231 232 228 219 211 213 223 236 246 254 260 266 272 277 280 282 284 286 288 289 289 289 289 291 293 296 299 300 301 301 302 302 303 305 307 310 311 311 311 312 313 314 314 313 312 311 312 312 312 312 313 313 315 316 316 316 315 314 313 312 312 313 313 310 303 300 298
218 218 217 216 217 219 220 219 219 220 220 218 217 216 216 220 224 227 228 225 217 211 213 224 240 252 259 263 267 268 270 272 275 278 280 282 283 285 285 286 288 291 293 295 298 299 299 300 300 300 301 303 306 308 308 307 308 309 310 311 310 309 309 308 309 310 309 309 310 312 313 314 314 314 314 313 311 310 310 311 311 309 303 297 293
217 217 217 219 221 219 218 217 219 221 222 222 220 220 220 221 223 225 222 217 214 218 227 237 243 250 255 256 257 258 260 263 268 272 278 281 283 284 285 287 290 292 294 296 298 298 297 298 298 298 299 300 302 303 302 303 305 306 307 307 307 306 305 305 306 306 306 307 308 309 311 311 311 311 311 310 309 308 309 309 309 308 305 300 294
216 217 221 224 222 216 215 220 223 223 223 223 221 220 221 222 221 220 217 216 220 229 238 242 241 241 247 253 256 257 259 262 266 270 274 277 280 282 284 287 289 291 293 295 295 295 295 295 295 296 298 299 301 301 301 303 303 304 304 303 302 301 301 301 301 301 302 303 304 306 307 307 307 307 307 307 306 306 306 306 305 305 304 302 299
218 221 222 218 213 213 220 225 223 222 222 222 221 220 220 219 217 215 216 219 226 233 238 241 239 237 241 247 253 256 257 260 265 269 272 275 278 281 283 285 287 288 290 291 293 293 295 296 297 299 301 302 303 303 303 304 303 303 303 301 300 299 299 298 299 298 298 300 301 302 303 304 304 303 303 303 303 302 302 302 302 302 302 301 299
223 221 217 213 215 223 226 221 217 218 220 220 219 218 217 217 216 217 219 223 227 231 234 237 239 240 243 247 252 257 260 262 266 270 273 276 278 281 283 283 284 286 288 290 292 293 295 297 300 302 304 305 306 306 306 306 305 304 303 301 300 300 299 299 298 297 297 297 298 299 299 300 300 300 300 300 299 299 299 299 299 299 300 299 298
221 216 216 220 224 223 217 212 212 215 216 216 217 217 217 218 220 223 225 227 228 231 235 239 242 245 248 251 255 260 263 266 270 272 275 277 278 279 281 282 283 285 288 290 292 294 296 299 301 304 305 306 306 306 305 305 304 303 302 301 301 300 300 299 299 297 297 297 297 297 297 297 297 297 297 297 297 297 297 297 296 296 297 298 297
218 218 220 221 216 208 203 205 210 214 216 218 219 219 221 223 224 226 228 229 230 232 235 240 245 249 253 255 258 261 264 268 272 275 278 279 281 281 283 285 287 290 293 295 296 298 300 302 304 305 305 305 305 304 304 304 304 303 302 302 301 300 300 300 299 299 298 298 297 296 295 295 295 295 295 295 295 296 296 295 295 294 294 295 294
214 214 212 207 202 200 201 205 210 214 218 219 219 221 224 224 224 225 228 229 231 233 236 240 247 252 257 262 265 268 270 272 275 278 281 283 285 288 290 293 295 297 299 301 301 301 302 303 304 304 304 304 304 303 304 304 303 303 303 302 302 302 301 301 301 300 300 300 299 298 297 296 295 294 294 294 293 294 294 294 294 293 293 293 292
202 199 197 196 198 203 206 209 213 216 218 218 219 222 223 222 221 222 227 232 237 239 243 247 253 259 264 269 272 275 277 279 280 282 285 287 290 293 294 296 298 299 300 301 300 301 302 303 303 303 304 304 304 304 304 305 305 305 304 304 303 303 303 303 303 304 304 303 302 301 300 299 298 297 296 295 294 294 295 295 295 294 294 293 292
192 191 193 197 202 206 210 212 214 216 217 219 221 222 222 223 223 222 226 234 241 246 251 256 261 267 271 273 275 277 280 282 283 285 287 289 291 293 294 296 297 297 299 299 299 300 301 302 302 303 303 303 303 304 305 305 305 306 305 305 305 306 306 307 308 308 307 306 304 303 302 302 301 301 300 299 298 297 296 297 298 297 296 295 293
191 193 195 199 203 206 211 214 216 218 221 222 222 223 225 227 228 229 232 238 244 251 256 259 263 268 272 275 277 280 283 285 287 288 290 291 292 293 294 295 296 297 298 299 299 300 301 301 301 302 302 303 303 305 306 306 307 307 307 307 307 308 309 310 311 310 309 308 306 305 303 302 302 302 302 302 302 300 299 299 299 299 298 297 294
194 196 197 200 204 207 211 215 219 222 224 225 227 230 231 232 232 233 236 242 248 255 260 264 267 270 272 276 281 284 286 288 289 291 292 293 294 295 295 296 297 298 300 300 299 300 300 300 301 301 302 303 304 306 307 307 307 307 307 306 306 307 309 311 311 310 308 308 307 305 305 305 305 305 305 304 303 302 300 300 300 299 299 297 296
194 198 200 202 207 211 214 219 223 226 229 233 235 238 242 244 243 241 241 245 251 257 264 269 274 277 280 282 285 287 288 289 290 292 294 296 297 298 299 300 300 302 302 302 301 302 302 302 303 303 304 304 305 306 306 307 306 306 305 306 306 308 310 311 311 310 310 309 308 306 307 307 306 305 305 306 305 303 301 300 300 299 298 297 296
195 200 203 206 212 216 220 224 228 232 236 239 241 247 253 256 255 254 255 258 263 268 273 276 279 283 286 288 290 291 292 294 295 297 299 300 300 301 302 303 305 305 305 305 304 304 305 305 305 306 306 307 308 309 308 308 308 308 308 308 309 310 311 312 312 311 311 310 308 307 306 306 305 304 304 305 304 302 300 300 299 297 295 295 294
203 208 212 217 223 227 231 235 239 242 245 247 251 258 264 267 268 268 269 272 276 280 284 287 288 290 293 294 294 294 295 296 297 298 298 298 298 300 301 303 305 305 305 305 304 305 305 304 304 305 307 308 309 311 311 310 310 311 310 310 310 310 311 311 310 309 307 306 306 305 304 302 301 301 302 302 300 298 297 299 299 296 293 292 293
224 227 230 234 239 242 246 251 254 256 259 261 264 269 273 277 279 280 280 282 284 287 289 290 292 294 295 294 293 293 295 295 295 295 295 296 297 299 299 300 301 302 303 304 304 303 303 304 306 308 310 311 311 311 310 308 307 306 304 303 302 301 300 299 299 298 298 298 300 301 302 300 298 298 298 297 295 293 294 297 298 297 293 291 292
244 245 246 250 255 259 263 266 268 271 273 273 274 278 280 283 285 287 287 288 289 289 290 291 291 291 290 289 290 291 292 292 293 293 294 295 296 297 298 299 301 302 302 302 302 303 304 307 309 309 309 308 306 304 302 300 299 298 296 295 294 292 292 292 292 293 294 295 295 295 295 294 293 295 295 292 290 291 294 295 295 295 292 287 287
283 278 276 276 277 277 279 280 279 279 280 279 280 283 285 287 289 289 289 290 290 289 289 289 288 288 288 288 290 290 289 289 290 291 292 294 296 299 302 303 303 303 303 303 305 307 309 309 309 307 304 301 299 298 297 296 295 295 295 295 295 295 296 296 296 296 295 295 295 295 295 294 292 292 291 287 286 289 292 291 291 291 288 284 283
316 310 303 300 296 292 290 288 286 285 285 285 286 287 288 289 289 288 287 287 287 286 286 285 285 286 288 290 291 291 291 291 292 293 295 297 300 303 305 306 306 308 310 312 314 315 315 314 312 310 308 305 303 301 299 297 296 296 296 296 296 295 295 296 297 297 297 296 295 293 291 291 291 290 289 288 288 289 290 288 287 286 284 283 282
324 320 314 309 305 301 298 296 294 293 292 292 292 292 291 289 287 286 286 285 284 284 284 284 285 287 289 290 290 290 291 291 292 294 297 299 303 308 313 315 316 319 321 322 321 320 318 317 316 315 313 311 309 307 305 303 301 300 299 298 297 295 295 294 294 295 295 294 293 290 288 287 285 284 283 283 285 289 290 289 288 285 282 281 280
324 321 317 313 309 306 303 300 298 297 295 295 293 291 290 289 287 287 286 285 284 283 282 281 282 283 283 283 284 284 286 287 290 293 299 305 313 321 325 326 328 329 329 328 326 323 322 321 320 319 318 316 314 312 309 308 306 305 303 301 300 298 297 296 294 293 291 290 290 291 290 289 286 283 279 277 279 284 286 286 288 288 282 276 275
317 316 314 312 310 307 304 302 300 298 296 295 293 292 291 290 289 287 285 283 281 279 278 277 276 274 273 273 275 278 282 285 292 303 314 322 328 332 334 334 335 335 333 330 328 325 323 323 323 323 322 320 319 317 314 313 311 309 306 305 303 301 300 299 299 298 296 294 293 292 290 288 287 287 286 284 283 285 284 281 282 287 287 282 280
311 310 310 308 306 305 303 301 299 298 296 295 293 291 289 287 285 283 281 278 274 272 268 265 262 262 262 264 267 270 277 289 304 320 330 335 338 340 339 339 339 337 334 332 328 326 325 325 326 327 328 328 327 325 323 321 319 316 313 311 309 307 307 307 306 305 303 301 299 298 296 293 291 289 288 286 284 283 283 281 279 280 283 285 287
305 304 304 302 300 300 298 296 295 294 293 291 290 288 286 283 279 275 271 265 260 257 254 251 252 255 256 258 263 272 292 312 327 337 341 343 346 346 346 346 344 341 338 335 331 330 330 329 329 330 332 332 331 330 328 327 326 323 321 319 316 315 315 313 311 310 307 305 303 302 300 297 295 292 291 290 288 286 285 283 280 279 280 281 282
299 298 297 296 295 294 292 291 291 290 288 286 284 281 279 275 270 264 260 256 252 251 250 250 254 259 262 266 279 302 325 334 339 344 346 347 348 349 350 350 347 343 341 338 334 333 333 332 332 332 332 331 330 329 328 328 328 327 325 323 321 319 318 316 314 312 310 309 307 306 303 302 301 299 297 294 292 289 285 282 280 279 279 279 278
296 295 294 293 293 291 290 289 289 287 285 283 280 276 272 267 262 258 256 257 257 257 256 256 259 267 277 291 309 325 334 339 341 344 343 341 342 344 345 344 343 342 341 339 336 334 334 333 331 329 328 327 326 326 326 328 328 327 326 325 323 321 320 318 315 312 310 310 308 308 307 305 304 302 300 296 293 291 288 285 283 281 278 276 275
296 295 295 295 294 293 292 291 289 287 285 282 278 272 266 261 258 257 258 260 261 263 266 272 280 291 300 310 317 324 331 334 335 336 334 332 333 335 335 335 336 336 337 337 336 335 335 333 330 328 325 323 322 322 323 324 326 326 326 326 325 323 320 317 314 312 312 311 309 307 307 305 303 301 301 298 296 294 292 290 289 286 282 278 275
297 297 297 297 296 294 292 291 289 287 284 280 274 268 262 259 259 260 263 266 271 276 281 287 293 299 304 309 314 319 324 326 326 326 326 325 325 327 327 329 330 331 332 333 334 333 333 332 330 328 325 323 320 319 318 319 320 322 323 323 324 323 320 317 317 318 317 314 310 307 304 303 301 300 299 299 297 296 294 292 290 288 286 283 277
302 301 298 295 292 288 285 283 282 280 278 274 269 265 263 263 263 265 272 277 282 285 289 291 293 297 301 305 308 313 317 319 320 321 320 320 321 323 324 325 326 327 328 329 329 329 330 330 329 328 327 326 324 322 320 319 318 318 318 320 321 320 318 317 319 320 319 316 312 308 304 302 300 299 299 299 298 297 296 295 293 290 288 285 280
307 304 299 294 288 283 280 278 275 272 271 270 268 268 269 271 273 276 279 280 281 284 286 289 291 295 300 304 309 313 316 317 318 318 317 318 320 321 322 324 325 327 327 327 327 327 327 327 328 329 329 329 328 327 326 325 324 322 320 319 318 316 316 317 319 320 320 317 313 310 306 304 301 300 299 298 298 298 298 297 295 293 290 286 282